Regional Weather Roundup
Issued by NWS

Home | Current Version | Previous Version | Text Only | Print | Product List | Glossary On
Versions: 1 2 3 4 5 6 7 8 9 10 11 12 13 14 15 16 17 18 19 20 21 22 23 24 25 26 27 28 29 30 31 32 33 34 35 36 37 38 39 40 41 42 43 44 45 46 47 48 49 50
000
ASUS45 KSLC 281510
RWRUT

UTAH REGIONAL WEATHER ROUNDUP
NATIONAL WEATHER SERVICE SALT LAKE CITY UT
800 AM MST WED JAN 28 2015

UTZ001>011-023>025-281600-

NORTHERN UTAH

CITY           SKY/WX    TMP DP  RH WIND       PRES   REMARKS
BRIGHAM CITY   CLOUDY    41  37  84 CALM      30.27R
HILL AFB       CLOUDY    42  37  83 W2        30.26R
LOGAN          CLOUDY    39  36  89 CALM      30.25R
OGDEN          CLOUDY    40  39  97 CALM      30.26R
PROVO AIRPORT  CLOUDY    39  34  81 S3        30.27R
SALT LAKE CITY MOCLDY    42  38  85 S3        30.25R
VERNAL         CLOUDY    30  25  81 W6        30.26R WCI  24
WENDOVER       CLOUDY    37  32  81 S3        30.26R
HEBER CITY     MIX PCPN  36  32  87 CALM      30.25R
WEST JORDAN    CLOUDY    39  37  93 CALM      30.27R

$$

UTZ012>022-026-027-281600-

SOUTHERN/CENTRAL UTAH

CITY           SKY/WX    TMP DP  RH WIND       PRES   REMARKS
BLANDING       CLEAR     32  31  95 N3        30.35S
BRYCE CANYON   CLEAR     21  19  92 W9        30.30S WCI  11
CEDAR CITY     PTCLDY    29  26  89 CALM      30.28R
DELTA          CLOUDY    37  35  90 S6        30.28R WCI  33
MILFORD        CLEAR     30  27  88 S6        30.28R WCI  24
MOAB/CYNLANDS  CLEAR     26  24  92 CALM      30.26S
PRICE          PTCLDY    30  26  85 N6        30.27R WCI  24
ST GEORGE      PTSUNNY   41  36  81 CALM      30.31R
KANAB            N/A     30  30 100 N5        30.34R WCI  25

$$

REGIONAL REPORTS     COLORADO/ARIZONA

CITY           SKY/WX    TMP DP  RH WIND       PRES   REMARKS
CRAIG, CO      PTCLDY    27  26  96 CALM      30.24R FOG
GRAND JUNCTION CLEAR     30  27  88 E8        30.28R WCI  22
RIFLE          MOCLDY    26  23  88 CALM      30.29R
MONTROSE       PTCLDY    30  26  85 CALM      30.30R
CORTEZ         MOCLDY    29  27  92 E7        30.29S WCI  22
PAGE, AZ       NOT AVBL
GRAND CANYON   CLEAR     23  21  92 CALM      30.32R
KINGMAN        PTCLDY    38  36  92 SE5       30.26R WCI  34
FLAGSTAFF      PTCLDY    23  19  85 CALM      30.30S

$$

REGIONAL REPORTS    NEVADA/IDAHO/WYOMING

CITY           SKY/WX    TMP DP  RH WIND       PRES   REMARKS
LAS VEGAS, NV  MOCLDY    49  43  80 SW8       30.22R
ELY            CLEAR     30  28  92 SW3       30.30R
ELKO           CLOUDY    36  34  92 SW3       30.31R
POCATELLO, ID  LGT RAIN  38  38 100 SW14      30.25R WCI  30
BURLEY         CLOUDY    36  34  92 W10G18    30.26R FOG     WCI  28
EVANSTON, WY   MOCLDY    32  30  92 SW13      30.23S WCI  22
ROCK SPRINGS   MOCLDY    33  28  81 W12       30.20R WCI  24
KEMMERER       CLOUDY    32  32 100 SW13      30.21R WCI  22

$$


USA.gov is the U.S. government's official web portal to all federal, state and local government web resources and services.